STARLINK-3119, 49145

Orbit data source: Space-Track

STARLINK-3119, 49145 is a payload satellite owned by SpaceX/Seattle (US) in LEO that was launched on Tue, 14 Sep 2021 UTC via an FALCON 9 launch vehicle from the Air Force Western Test Range (AFWTR). Payload-class satellites include a variety of spacecraft equipped with specific instruments for various scientific and technological missions. These include communications satellites like Starlink; space stations such as the ISS; scientific satellites like the Hubble; Earth observation satellites from companies like Planet Labs, Umbra, and HawkEye 360; GPS; miniature CubeSats for education and research; and military/defense satellites.

Loading next visibility...
Identifier
49145, 2021-082R
Orbit
LEO
Country
Flag of USUS
Related business
Manufacturer
SpaceX/Seattle
Mission
Operational Commercial Communications
Bus & Motor
STARLINK, Unknown motor
Mass
297 kg wet, ~275 kg dry
Launch date (UTC)
2021-09-14 (4 years ago)
Launch vehicle
FALCON 9
Launch site
Air Force Western Test Range (AFWTR)
Object type
Payload
Rocket body
Debris
Shape & HBR
Box + 1 Pan, 10.1 m
Radar Cross Section
13.562 m², Large (>1 m²)

Expand to show TLE details & history
Last TLE update: 13 hours ago

TLE from 13 hours ago
0 STARLINK-3119
1 49145U 21082R   26071.72186440  .00000330  00000-0  35451-4 0  9992
2 49145  69.9989 246.7928 0002675 269.7308  90.3545 14.98332315247411
Epoch: 2026-03-12T17:19Z
TLE epoch observation values (Epoch: 2026-03-12T17:19:29.084Z)
Latitude
0.00004°
Longitude
176.55395°
Altitude
574.485 km
Speed
7.574 km/s
True Right ascension
16h 27m 10s
True Declination
0° 00' 00"
Sunlit
Object was in daylight at epoch
Visualization orbit readout
Latitude
Unknown
Longitude
Unknown
Altitude
Unknown
Speed
Unknown
Apparent Right ascension
Unknown
Apparent Declination
Unknown
Sunlit
N/A
Visualization observer readout
Local Sidereal Time
10:13:58
Azimuth
Unknown
Elevation
Unknown
Doppler factor
Unknown
Orbital elements
Apogee altitude
571.856 km
Perigee altitude
568.138 km
Semi-major axis
6,948.134 km
Eccentricity
0.00027
Inclination
69.9989°
RAAN
246.7928°
Arg. of periapsis
269.7308°
True anomaly
90.38515°
Mean anomaly
90.3545°
Eccentric anomaly
90.36983°
Mean motion
3.74749 °/min
Orbital period
96.06 mins
BSTAR
0.000035451
Loading maneuver chart data...
Computing Atmospheric mass density...

Documentation

Showing up to 5 results
|